Volver al catálogo

STARLINK-37488

ActivoComunicacionesSSO
NORAD 68859·PAYLOAD·🇺🇸 United States

Lanzado Apr 26, 2026 desde Vandenberg Space Force Base

Loading…

Próximos Pases (próximas 24 horas)

TLE

ActualizadoSource: CelesTrak SupGP

Época: Sep 15, 2026, 03:30 UTC

1 68859C 26094W   26258.14631944 -.00060871  00000+0 -18898-2 0  2589
2 68859  97.2836 271.3990 0001604  91.8465 162.0318 15.33466126    17

Sigue STARLINK-37488 en tiempo real con AllMySat

Download on the App Store